This is the latest recevied weather packets stored in our database for station/object KB1WCR. If no packets are shown the sender has not sent any weather packets the latest 10 day(s).
| Time | Temp. | Humidity | Pressure | Rain* | Wind** | Luminosity | Snow |
|---|---|---|---|---|---|---|---|
| 1777936339 | 19.44° C | 42% | 1005.2 hPa | 0 mm | - | 24 W/m² | - |
| 1777936035 | 19.44° C | 41% | 1005.4 hPa | 0 mm | - | 29 W/m² | - |
| 1777935734 | 20° C | 40% | 1005.2 hPa | 0 mm | - | 34 W/m² | - |
| 1777935432 | 20° C | 41% | 1005 hPa | 0 mm | - | 42 W/m² | - |
| 1777935128 | 20° C | 40% | 1005.1 hPa | 0 mm | - | 53 W/m² | - |
| 1777934825 | 20° C | 40% | 1005.2 hPa | 0 mm | - | 55 W/m² | - |
| 1777934523 | 20° C | 39% | 1005.1 hPa | 0 mm | - | 53 W/m² | - |
| 1777934219 | 20° C | 40% | 1005.1 hPa | 0 mm | - | 61 W/m² | - |
| 1777933914 | 20° C | 40% | 1005 hPa | 0 mm | - | 78 W/m² | - |
| 1777933612 | 20° C | 42% | 1004.9 hPa | 0 mm | - | 69 W/m² | - |
| 1777933308 | 20° C | 41% | 1005 hPa | 0 mm | - | 73 W/m² | - |
| 1777933006 | 20° C | 41% | 1005 hPa | 0 mm | - | 70 W/m² | - |
| 1777932703 | 20.56° C | 40% | 1005.1 hPa | 0 mm | - | 74 W/m² | - |
| 1777932399 | 20.56° C | 40% | 1005 hPa | 0 mm | - | 119 W/m² | - |
| 1777932097 | 20.56° C | 39% | 1004.7 hPa | 0 mm | - | 128 W/m² | - |
| 1777931793 | 20° C | 39% | 1005 hPa | 0 mm | - | 63 W/m² | - |
| 1777931491 | 20.56° C | 40% | 1004.9 hPa | 0 mm | - | 101 W/m² | - |
| 1777931186 | 20.56° C | 39% | 1004.9 hPa | 0 mm | - | 72 W/m² | - |
| 1777930883 | 20.56° C | 38% | 1004.9 hPa | 0 mm | - | 196 W/m² | - |
| 1777930579 | 21.11° C | 39% | 1004.9 hPa | 0 mm | - | 109 W/m² | - |
| 1777930276 | 20.56° C | 40% | 1005 hPa | 0 mm | - | 254 W/m² | - |
| 1777929972 | 20° C | 40% | 1005 hPa | 0 mm | - | 105 W/m² | - |
| 1777929670 | 20° C | 41% | 1005 hPa | 0 mm | - | 69 W/m² | - |
| 1777929367 | 20.56° C | 41% | 1005 hPa | 0 mm | - | 79 W/m² | - |
| 1777929063 | 20.56° C | 40% | 1004.8 hPa | 0 mm | - | 103 W/m² | - |
* Rain latest hour (hover to see other rain measurements)
** Current wind speed in m/s (hover to see current wind gust speed)